Location: Unspecified
(0.0000°N, 0.0000°E)
Time: 13:47:11
(UTC+00:00)

LightSail 2 - Pass Details

Date: 23 August 2019
Orbit: 701 x 732 km, 24.0° (Epoch: 21 August)

Event Time Altitude Azimuth Distance (km) Brightness Sun altitude
Exits shadow 04:06:02 24° 156° (SSE) 1,443 6.8 -28.5°
Drops below altitude 10° 04:08:27 10° 137° (SE) 2,191 8.0 -28.0°
Sets 04:11:04 0° 129° (SE) 3,117 9.0 -27.3°
